sat.trackr.live / text

‹ back to catalog

STARLINK-37097

NORAD 68238 · 2026-054G

PAYLOAD ACTIVE UNKNOWN

§ Identity

Operator
Country
US
Launch date
2026-03-17
Launch site
AFETR
Launch vehicle
Mass (kg)
RCS (m²)

Purposes: comms

External: N2YO · Heavens-Above · Gunter

§ Orbital elements

Epoch: 2026-09-20T01:08:48.897024Z

Period
93.85 min
Inclination
53.1565°
Eccentricity
0.0001219
Mean motion
15.34405560 rev/d
Perigee alt
461.9 km
Apogee alt
463.5 km
Semi-major
6,840.8 km
B*
5.1873e-4
RAAN
103.7659°
Arg perigee
95.4736°
Mean anomaly
264.6406°
Rev number
2,889

§ Raw data

STARLINK-370971 68238U 26054G   26263.04778816  .00017193  00000+0  51873-3 0  99912 68238  53.1565 103.7659 0001219  95.4736 264.6406 15.34405560 28890

JSON: /api/v1/satellites/68238 · /tle

For live sub-satellite position, see the globe view (requires WebGL).

§ Visibility from observer

Set your observer location to see the next 7 days of passes ≥ 10°. The values pass through the URL so the page stays shareable.

No JS? Fill the form by hand. The geolocation button needs JavaScript.